TimeMDT,TemperatureF,Dew PointF,Humidity,Sea Level PressureIn,VisibilityMPH,Wind Direction,Wind SpeedMPH,Gust SpeedMPH,PrecipitationIn,Events,Conditions,WindDirDegrees,DateUTC
12:53 AM,64.9,55.0,70,29.84,10.0,Calm,Calm,-,N/A,,Partly Cloudy,0,2013-08-24 06:53:00
1:53 AM,64.9,53.1,65,29.85,10.0,Calm,Calm,-,N/A,,Clear,0,2013-08-24 07:53:00
2:53 AM,64.9,54.0,68,29.85,10.0,Calm,Calm,-,N/A,,Overcast,0,2013-08-24 08:53:00
3:53 AM,63.0,52.0,67,29.86,10.0,Calm,Calm,-,N/A,,Clear,0,2013-08-24 09:53:00
4:53 AM,62.1,52.0,70,29.92,10.0,NNE,3.5,-,N/A,,Clear,20,2013-08-24 10:53:00
5:53 AM,61.0,51.1,70,29.92,10.0,WSW,6.9,-,N/A,,Clear,250,2013-08-24 11:53:00
6:53 AM,60.1,51.1,72,29.94,10.0,Calm,Calm,-,N/A,,Clear,0,2013-08-24 12:53:00
7:53 AM,64.9,51.1,61,29.95,10.0,Calm,Calm,-,N/A,,Clear,0,2013-08-24 13:53:00
8:53 AM,72.0,51.1,48,29.94,10.0,Calm,Calm,-,N/A,,Clear,0,2013-08-24 14:53:00
9:53 AM,75.9,50.0,40,30.12,10.0,Calm,Calm,-,N/A,,Clear,0,2013-08-24 15:53:00
10:53 AM,79.0,50.0,36,29.96,10.0,Variable,5.8,-,N/A,,Clear,0,2013-08-24 16:53:00
11:53 AM,82.0,48.9,31,29.95,10.0,ESE,5.8,-,N/A,,Clear,120,2013-08-24 17:53:00
12:53 PM,82.9,48.0,29,29.92,10.0,Variable,4.6,-,N/A,,Clear,0,2013-08-24 18:53:00
1:53 PM,84.0,44.1,25,29.90,10.0,Calm,Calm,-,N/A,,Clear,0,2013-08-24 19:53:00
2:53 PM,87.1,42.1,21,29.87,10.0,SSW,8.1,-,N/A,,Clear,210,2013-08-24 20:53:00
3:53 PM,87.1,43.0,21,29.85,10.0,Variable,5.8,-,N/A,,Scattered Clouds,0,2013-08-24 21:53:00
4:53 PM,86.0,42.1,21,29.85,10.0,SSE,8.1,-,N/A,,Clear,160,2013-08-24 22:53:00
5:53 PM,84.9,45.0,25,29.84,10.0,South,10.4,-,N/A,,Partly Cloudy,180,2013-08-24 23:53:00
6:53 PM,77.0,50.0,39,29.89,10.0,WNW,26.5,34.5,0.00,Rain,Light Rain,290,2013-08-25 00:53:00
7:00 PM,75.2,53.6,47,30.05,10.0,WNW,20.7,32.2,0.00,Rain,Light Rain,290,2013-08-25 01:00:00
7:53 PM,73.0,51.1,46,29.95,10.0,West,17.3,-,0.00,Rain,Light Rain,280,2013-08-25 01:53:00
8:53 PM,66.0,60.1,81,30.00,8.0,West,8.1,-,0.01,Rain,Light Rain,280,2013-08-25 02:53:00
9:53 PM,64.9,57.9,78,30.01,10.0,WNW,9.2,-,0.01,Rain,Light Rain,290,2013-08-25 03:53:00
10:53 PM,64.0,57.9,80,30.01,10.0,WNW,6.9,-,0.00,,Overcast,300,2013-08-25 04:53:00
11:53 PM,63.0,60.1,90,29.99,10.0,Calm,Calm,-,0.01,,Overcast,0,2013-08-25 05:53:00